Weather History for Chamberlain, SD

Change the Weather History Date:

Thursday, February 14, 2013

  Actual Average Record
Temperature  
Mean Temperature 28 °F -  
Max Temperature 36 °F 34 °F 63 °F (1999)
Min Temperature 19 °F 15 °F -6 °F (2007)
Degree Days  
Heating Degree Days 38    
Moisture  
Dew Point 21 °F    
Average Humidity 74    
Maximum Humidity 86    
Minimum Humidity 61    
Precipitation  
Precipitation 0.07 in - - ()
Sea Level Pressure  
Sea Level Pressure 30.12 in    
Wind  
Wind Speed 13 mph (NW)    
Max Wind Speed 31 mph    
Max Gust Speed 38 mph    
Averages and records for this station are not official NWS values.
T = Trace of Precipitation, MM = Missing Value Source: NWS Daily Summary

Daily Weather History Graph

Daily Weather History Graph

Search for Another Location

Airport:

Trip Planner

Search our weather history database for the weather conditions in past years. The results will help you decide how hot, cold, wet, or windy it might be!

Date:

Astronomy

Feb. 14, 2013 Rise Set
Actual Time 7:37 AM CST 6:06 PM CST
Civil Twilight 7:07 AM CST 6:36 PM CST
Nautical Twilight 6:33 AM CST 7:09 PM CST
Astronomical Twilight 6:00 AM CST 7:43 PM CST
Moon 9:28 AM CST (2/14) 11:23 PM CST (2/14)
Length of Visible Light 11h 28m
Length of Day
10h 29m
Waxing Crescent, 22% of the Moon is Illuminated
Feb 14
Waxing Crescent
Feb 17
First Quarter
Feb 25
Full
Mar 4
Last Quarter
Mar 11
New

Hourly Weather History & Observations

Time (CST) Temp. Windchill Dew Point Humidity Pressure Visibility Wind Dir Wind Speed Gust Speed Precip Events Conditions
12:52 AM 36.0 °F 30.3 °F 30.0 °F 79% 29.89 in - WNW 6.9 mph - N/A   Unknown
1:52 AM 34.0 °F 26.6 °F 30.0 °F 85% 29.91 in - West 9.2 mph - N/A   Unknown
2:52 AM 34.0 °F 26.0 °F 28.9 °F 82% 29.92 in - West 10.4 mph - N/A   Unknown
3:52 AM 34.0 °F 25.0 °F 27.0 °F 75% 29.92 in - WNW 12.7 mph - N/A   Unknown
4:52 AM 33.1 °F 24.4 °F 26.1 °F 75% 29.94 in - West 11.5 mph 19.6 mph N/A   Unknown
5:52 AM 32.0 °F 23.6 °F 24.1 °F 73% 29.95 in - West 10.4 mph - N/A   Unknown
6:52 AM 30.0 °F 19.5 °F 21.9 °F 72% 29.97 in - West 13.8 mph - N/A   Unknown
7:52 AM 32.0 °F 20.8 °F 21.9 °F 66% 29.99 in - West 17.3 mph - N/A   Unknown
8:52 AM 33.1 °F 21.5 °F 21.9 °F 64% 30.00 in - WNW 19.6 mph - N/A   Unknown
9:52 AM 34.0 °F 21.5 °F 21.9 °F 61% 30.02 in - WNW 24.2 mph 29.9 mph N/A   Unknown
10:52 AM 35.1 °F 24.5 °F 23.0 °F 61% 30.02 in - WNW 18.4 mph - N/A   Unknown
11:52 AM 33.1 °F 22.2 °F 25.0 °F 72% 30.04 in - WNW 17.3 mph 28.8 mph N/A   Unknown
12:52 PM 34.0 °F 23.0 °F 27.0 °F 75% 30.05 in - NW 18.4 mph 26.5 mph N/A   Unknown
1:47 PM 28.4 °F 14.4 °F 24.8 °F 86% 30.05 in - NNE 23.0 mph 33.4 mph 0.02 in   Unknown
1:52 PM 27.0 °F 11.6 °F 23.0 °F 85% 30.11 in - North 26.5 mph 34.5 mph 0.02 in   Unknown
2:52 PM 23.0 °F 5.1 °F 18.0 °F 81% 30.20 in - North 31.1 mph 38.0 mph 0.03 in   Unknown
3:52 PM 24.1 °F 10.1 °F 16.0 °F 71% 30.27 in - North 18.4 mph 26.5 mph 0.02 in   Unknown
4:52 PM 24.1 °F 10.6 °F 16.0 °F 71% 30.30 in - NNW 17.3 mph 26.5 mph N/A   Unknown
5:52 PM 24.1 °F 12.0 °F 16.0 °F 71% 30.33 in - NNW 13.8 mph - N/A   Unknown
6:52 PM 24.1 °F 12.0 °F 16.0 °F 71% 30.35 in - NNW 13.8 mph - N/A   Unknown
7:52 PM 21.0 °F 13.4 °F 14.0 °F 74% 30.36 in - NNE 5.8 mph - N/A   Unknown
8:52 PM 19.9 °F 14.9 °F 12.9 °F 74% 30.36 in - North 3.5 mph - N/A   Unknown
9:52 PM 21.0 °F 16.2 °F 15.1 °F 78% 30.36 in - WNW 3.5 mph - N/A   Unknown
10:52 PM 21.0 °F 14.6 °F 16.0 °F 81% 30.36 in - West 4.6 mph - N/A   Unknown
11:52 PM 21.0 °F 11.4 °F 14.0 °F 74% 30.37 in - NW 8.1 mph - N/A   Unknown